Location: Llanfihangel-Ystrad
(52.1833°N, 4.1667°W)
Time: 23:33:43
(UTC+00:00)

Cosmos 2237 Rocket - Pass Details

Date: 17 February 2020
Orbit: 835 x 850 km, 71.0° (Epoch: 09 April)

Event Time Altitude Azimuth Distance (km) Brightness Sun altitude
Exits shadow 04:03:17 58° 54° (NE) 977 2.6 -31.8°
Drops below altitude 10° 04:07:50 10° 33° (NNE) 2,458 5.2 -31.1°
Sets 04:10:17 0° 32° (NNE) 3,396 6.1 -30.8°
